Location: Rancho Del Sol Observatory
(38.7214°N, 120.6350°W)
Time: 05:41:23
(UTC-08:00)

A-11 Canister half - Pass Details

Date: 28 January 2020
Orbit: 1517 x 1683 km, 47.2° (Epoch: 24 February)

Event Time Altitude Azimuth Distance (km) Brightness Sun altitude
Exits shadow 05:49:11 21° 287° (WNW) 2,889 9.8 -16.3°
Maximum altitude 05:55:13 49° 224° (SW) 1,891 9.3 -15.1°
Drops below altitude 10° 06:04:06 10° 152° (SSE) 3,726 11.6 -13.4°
Sets 06:07:19 0° 147° (SSE) 4,728 12.3 -12.8°
